DW6169 Weather Reports


Display with metric or nautical units.
time (UTC)temp
F
wind
direction
speed
MPH
gust
MPH
rain 1hr
in
rain 24hr
in
rain mn
in
humidity
%
barometer
mb
20260508094608 72 0 0.0 0.0 0.00 0.00 0.00 79 1014.4
20260508094057 72 0 0.0 0.0 0.00 0.00 0.00 79 1014.5
20260508093601 72 0 0.0 0.0 0.00 0.00 0.00 79 1014.4
20260508093059 73 0 0.0 0.0 0.00 0.00 0.00 79 1014.4
20260508092557 73 0 0.0 0.0 0.00 0.00 0.00 79 1014.5
20260508092058 73 0 0.0 0.0 0.00 0.00 0.00 78 1014.4
20260508091604 73 0 0.0 0.0 0.00 0.00 0.00 78 1014.4
20260508091058 73 0 0.0 0.0 0.00 0.00 0.00 78 1014.3
20260508090558 73 0 0.0 0.0 0.00 0.00 0.00 78 1014.3
20260508090114 73 0 0.0 0.0 0.00 0.00 0.00 78 1014.4
20260508085557 73 0 0.0 0.0 0.00 0.00 0.00 78 1014.4
20260508085056 73 0 0.0 0.0 0.00 0.00 0.00 78 1014.4
20260508084559 74 0 0.0 0.0 0.00 0.00 0.00 78 1014.3
20260508084058 74 0 0.0 0.0 0.00 0.00 0.00 78 1014.4
20260508083600 74 0 0.0 2.0 0.00 0.00 0.00 78 1014.4
20260508083059 74 0 0.0 2.0 0.00 0.00 0.00 77 1014.3
20260508082557 74 0 0.0 0.0 0.00 0.00 0.00 77 1014.3
20260508082057 74 0 0.0 0.0 0.00 0.00 0.00 77 1014.2
20260508081607 74 0 0.0 0.0 0.00 0.00 0.00 77 1014.2
20260508081057 74 0 0.0 0.0 0.00 0.00 0.00 77 1014.2
20260508080557 74 0 0.0 1.0 0.00 0.00 0.00 78 1014.3
20260508080059 74 0 0.0 1.0 0.00 0.00 0.00 78 1014.2
20260508075558 75 0 0.0 0.0 0.00 0.00 0.00 78 1014.2
20260508075101 75 0 0.0 0.0 0.00 0.00 0.00 78 1014.1
20260508074558 75 0 0.0 0.0 0.00 0.00 0.00 78 1014.2
20260508074057 75 0 0.0 0.0 0.00 0.00 0.00 78 1014.1
20260508073557 75 0 0.0 0.0 0.00 0.00 0.00 78 1014.1
20260508073111 76 0 0.0 0.0 0.00 0.00 0.00 79 1014.2
20260508072557 76 0 0.0 0.0 0.00 0.00 0.00 79 1014.3
20260508072057 76 0 0.0 0.0 0.00 0.00 0.00 79 1014.3
20260508071606 76 0 0.0 0.0 0.00 0.00 0.00 79 1014.3
20260508071058 77 0 0.0 0.0 0.00 0.00 0.00 79 1014.4
20260508070558 77 0 0.0 0.0 0.00 0.00 0.00 79 1014.3
20260508070056 77 0 0.0 0.0 0.00 0.00 0.00 78 1014.3
20260508065558 77 0 0.0 0.0 0.00 0.00 0.00 78 1014.4
20260508065057 77 0 0.0 0.0 0.00 0.00 0.00 78 1014.2
20260508064612 77 0 0.0 0.0 0.00 0.00 0.00 78 1014.3
20260508064057 77 0 0.0 0.0 0.00 0.00 0.00 78 1014.4
20260508063558 77 0 0.0 0.0 0.00 0.00 0.00 79 1014.4
20260508063109 77 0 0.0 0.0 0.00 0.00 0.00 79 1014.4
20260508062558 77 0 0.0 1.0 0.00 0.00 0.00 79 1014.4
20260508062057 78 0 0.0 3.0 0.00 0.00 0.00 79 1014.5
20260508061608 78 0 0.0 3.0 0.00 0.00 0.00 79 1014.5
20260508061059 78 0 0.0 0.0 0.00 0.00 0.00 79 1014.5
20260508060558 78 0 0.0 0.0 0.00 0.00 0.00 79 1014.6
20260508060106 78 0 0.0 0.0 0.00 0.00 0.00 79 1014.7
20260508055557 79 0 0.0 0.0 0.00 0.00 0.00 79 1014.8
20260508055058 79 0 0.0 0.0 0.00 0.00 0.00 79 1014.9
20260508054556 79 0 0.0 0.0 0.00 0.00 0.00 79 1014.8
20260508054059 79 0 0.0 0.0 0.00 0.00 0.00 79 1015.0
20260508053558 79 0 0.0 0.0 0.00 0.00 0.00 79 1015.0
20260508053101 79 0 0.0 0.0 0.00 0.00 0.00 79 1015.1
20260508052559 79 0 0.0 0.0 0.00 0.00 0.00 79 1015.0
20260508052100 80 0 0.0 0.0 0.00 0.00 0.00 79 1015.0
20260508051614 80 0 0.0 0.0 0.00 0.00 0.00 79 1015.0
20260508051058 80 0 0.0 0.0 0.00 0.00 0.00 79 1015.0
20260508050602 80 0 0.0 0.0 0.00 0.00 0.00 78 1015.1
20260508050059 80 0 0.0 0.0 0.00 0.00 0.00 78 1015.1
20260508045558 80 0 0.0 3.0 0.00 0.00 0.00 78 1015.1
20260508045058 80 0 0.0 3.0 0.00 0.00 0.00 77 1015.1
20260508044558 80 0 0.0 2.0 0.00 0.00 0.00 77 1015.1
20260508044059 80 0 0.0 2.0 0.00 0.00 0.00 77 1015.1
20260508043604 80 0 0.0 2.0 0.00 0.00 0.00 76 1015.2
20260508043100 80 0 0.0 6.0 0.00 0.00 0.00 76 1015.2
20260508042557 80 0 1.0 6.0 0.00 0.00 0.00 76 1015.1
20260508042100 80 0 0.0 3.0 0.00 0.00 0.00 76 1015.1
20260508041600 80 0 0.0 3.0 0.00 0.00 0.00 76 1015.2
20260508041058 80 128 0.0 3.0 0.00 0.00 0.00 76 1015.2
20260508040559 80 0 0.0 4.0 0.00 0.00 0.00 76 1015.2
20260508040105 80 127 0.0 4.0 0.00 0.00 0.00 76 1015.2
20260508035600 80 157 0.0 3.0 0.00 0.00 0.00 76 1015.3
20260508035059 80 0 0.0 2.0 0.00 0.00 0.00 76 1015.3
20260508034601 80 0 0.0 2.0 0.00 0.00 0.00 76 1015.4
20260508034100 80 0 0.0 2.0 0.00 0.00 0.00 76 1015.5
20260508033601 80 0 0.0 2.0 0.00 0.00 0.00 76 1015.4
20260508033101 80 0 0.0 2.0 0.00 0.00 0.00 75 1015.4
20260508032601 80 0 0.0 3.0 0.00 0.00 0.00 76 1015.5
20260508032101 80 0 0.0 3.0 0.00 0.00 0.00 75 1015.5
20260508031601 80 146 0.0 5.0 0.00 0.00 0.00 75 1015.4
20260508031101 80 0 0.0 6.0 0.00 0.00 0.00 75 1015.4
20260508030601 80 0 0.0 6.0 0.00 0.00 0.00 75 1015.5
20260508030104 80 0 0.0 6.0 0.00 0.00 0.00 75 1015.5
20260508025601 80 0 0.0 4.0 0.00 0.00 0.00 75 1015.4
20260508025100 80 0 0.0 4.0 0.00 0.00 0.00 75 1015.4
20260508024619 80 0 0.0 4.0 0.00 0.00 0.00 75 1015.3
20260508024059 80 0 0.0 3.0 0.00 0.00 0.00 75 1015.3
20260508023559 80 0 0.0 2.0 0.00 0.00 0.00 74 1015.4
20260508023101 81 0 0.0 2.0 0.00 0.00 0.00 74 1015.4
20260508022601 81 0 0.0 2.0 0.00 0.00 0.00 74 1015.4
20260508022136 81 0 0.0 0.0 0.00 0.00 0.00 74 1015.4
20260508021606 81 0 0.0 1.0 0.00 0.00 0.00 74 1015.2
20260508021058 81 0 0.0 2.0 0.00 0.00 0.00 74 1015.3
20260508020601 81 0 0.0 2.0 0.00 0.00 0.00 74 1015.3
20260508020130 81 0 0.0 1.0 0.00 0.00 0.00 74 1015.2
20260508015557 81 0 0.0 2.0 0.00 0.00 0.00 73 1015.3
20260508015101 81 0 0.0 3.0 0.00 0.00 0.00 73 1015.2
20260508014601 81 0 0.0 4.0 0.00 0.00 0.00 73 1015.2
20260508014059 81 0 0.0 4.0 0.00 0.00 0.00 73 1015.2
20260508013600 81 0 0.0 4.0 0.00 0.00 0.00 73 1015.3
20260508013100 81 0 0.0 4.0 0.00 0.00 0.00 73 1015.2
20260508012559 81 0 0.0 5.0 0.00 0.00 0.00 72 1015.2
20260508012059 81 0 0.0 5.0 0.00 0.00 0.00 72 1015.2
20260508011606 81 144 0.0 3.0 0.00 0.00 0.00 72 1015.2
20260508011058 81 0 0.0 6.0 0.00 0.00 0.00 72 1015.2
20260508010558 81 0 0.0 6.0 0.00 0.00 0.00 72 1015.0
20260508010101 81 39 0.0 6.0 0.00 0.00 0.00 72 1015.0
20260508005558 82 132 1.0 5.0 0.00 0.00 0.00 72 1015.0
20260508005058 82 123 0.0 7.0 0.00 0.00 0.00 71 1015.0
20260508004602 82 123 1.0 7.0 0.00 0.00 0.00 71 1014.9
20260508004101 82 157 1.0 7.0 0.00 0.00 0.00 71 1014.9
20260508003558 82 134 0.0 5.0 0.00 0.00 0.00 71 1014.8
20260508003100 82 0 1.0 5.0 0.00 0.00 0.00 71 1015.0
20260508002600 82 136 0.0 5.0 0.00 0.00 0.00 70 1015.0
20260508002059 82 192 0.0 5.0 0.00 0.00 0.00 70 1014.9
20260508001600 82 119 1.0 8.0 0.00 0.00 0.00 70 1014.9
20260508001101 82 0 0.0 8.0 0.00 0.00 0.00 70 1014.8
20260508000558 83 0 0.0 3.0 0.00 0.00 0.00 70 1014.7
20260508000058 83 0 0.0 5.0 0.00 0.00 0.00 70 1014.5
20260507235557 83 0 0.0 7.0 0.00 0.00 0.00 69 1014.5
20260507235057 83 0 0.0 7.0 0.00 0.00 0.00 68 1014.5
20260507234600 83 0 1.0 5.0 0.00 0.00 0.00 68 1014.4
20260507234101 84 0 0.0 5.0 0.00 0.00 0.00 67 1014.4
20260507233558 84 142 0.0 6.0 0.00 0.00 0.00 66 1014.3
20260507233102 84 0 1.0 6.0 0.00 0.00 0.00 65 1014.4
20260507232600 85 0 1.0 5.0 0.00 0.00 0.00 65 1014.4
20260507232102 85 0 0.0 7.0 0.00 0.00 0.00 63 1014.3
20260507231601 85 0 1.0 7.0 0.00 0.00 0.00 61 1014.2
20260507231059 86 120 0.0 6.0 0.00 0.00 0.00 60 1014.3
20260507230600 86 0 0.0 7.0 0.00 0.00 0.00 57 1014.2
20260507230111 87 103 2.0 7.0 0.00 0.00 0.00 57 1014.2
20260507225558 87 0 1.0 6.0 0.00 0.00 0.00 56 1014.1
20260507225100 88 0 1.0 5.0 0.00 0.00 0.00 53 1014.1
20260507224600 88 152 0.0 5.0 0.00 0.00 0.00 53 1014.2
20260507224101 88 0 0.0 5.0 0.00 0.00 0.00 57 1014.1
20260507223601 88 227 0.0 4.0 0.00 0.00 0.00 56 1014.1
20260507223101 88 0 0.0 5.0 0.00 0.00 0.00 55 1014.2
20260507222559 88 0 0.0 7.0 0.00 0.00 0.00 57 1014.1
20260507222102 88 0 1.0 9.0 0.00 0.00 0.00 58 1014.2
20260507221600 88 187 1.0 9.0 0.00 0.00 0.00 56 1014.1
20260507221058 89 179 1.0 7.0 0.00 0.00 0.00 54 1014.1
20260507220601 89 199 1.0 7.0 0.00 0.00 0.00 54 1014.1
20260507220100 89 160 1.0 9.0 0.00 0.00 0.00 53 1014.1
20260507215600 89 180 1.0 9.0 0.00 0.00 0.00 53 1014.0
20260507215057 89 234 1.0 7.0 0.00 0.00 0.00 50 1014.0
20260507214558 90 0 0.0 8.0 0.00 0.00 0.00 51 1014.0
20260507214100 90 190 1.0 8.0 0.00 0.00 0.00 50 1013.9
20260507213601 90 192 1.0 9.0 0.00 0.00 0.00 52 1013.9
20260507213059 90 0 1.0 9.0 0.00 0.00 0.00 52 1014.0
20260507212557 90 296 1.0 6.0 0.00 0.00 0.00 51 1014.1
20260507212059 91 0 1.0 6.0 0.00 0.00 0.00 51 1014.1
20260507211604 91 269 0.0 6.0 0.00 0.00 0.00 51 1014.1
20260507211057 91 0 1.0 6.0 0.00 0.00 0.00 49 1014.2
20260507210601 91 234 1.0 6.0 0.00 0.00 0.00 52 1014.2
20260507210111 91 325 2.0 6.0 0.00 0.00 0.00 52 1014.2
20260507205558 91 220 1.0 7.0 0.00 0.00 0.00 52 1014.1
20260507205059 91 0 1.0 9.0 0.00 0.00 0.00 49 1014.1
20260507204601 90 92 3.0 9.0 0.00 0.00 0.00 52 1014.2
20260507204104 91 286 2.0 9.0 0.00 0.00 0.00 48 1014.3
20260507203601 91 223 2.0 9.0 0.00 0.00 0.00 50 1014.2
20260507203129 91 133 1.0 10.0 0.00 0.00 0.00 51 1014.3
20260507202559 91 165 1.0 10.0 0.00 0.00 0.00 51 1014.3
20260507202058 91 84 2.0 8.0 0.00 0.00 0.00 54 1014.3
20260507201559 91 254 1.0 10.0 0.00 0.00 0.00 53 1014.5
20260507201100 91 46 2.0 10.0 0.00 0.00 0.00 54 1014.4
20260507200604 91 158 1.0 12.0 0.00 0.00 0.00 52 1014.5
20260507195557 92 126 3.0 12.0 0.00 0.00 0.00 54 1014.6
20260507195102 92 209 1.0 7.0 0.00 0.00 0.00 53 1014.7
20260507194619 92 164 1.0 7.0 0.00 0.00 0.00 56 1014.7
20260507194100 92 144 1.0 8.0 0.00 0.00 0.00 56 1014.8
20260507193559 92 67 1.0 8.0 0.00 0.00 0.00 57 1014.8
20260507193106 92 0 3.0 8.0 0.00 0.00 0.00 54 1014.9
20260507192559 93 115 1.0 8.0 0.00 0.00 0.00 54 1014.9
20260507192058 93 127 1.0 8.0 0.00 0.00 0.00 55 1014.9
20260507191559 93 170 1.0 8.0 0.00 0.00 0.00 56 1015.0
20260507191058 92 209 2.0 8.0 0.00 0.00 0.00 55 1015.0
20260507190559 93 270 0.0 7.0 0.00 0.00 0.00 55 1015.1
20260507185559 92 0 2.0 7.0 0.00 0.00 0.00 56 1015.0
20260507185059 92 120 1.0 7.0 0.00 0.00 0.00 55 1015.2
20260507184558 92 0 1.0 8.0 0.00 0.00 0.00 56 1015.3
20260507184100 92 94 1.0 8.0 0.00 0.00 0.00 55 1015.5
20260507183558 92 0 2.0 8.0 0.00 0.00 0.00 56 1015.5
20260507183100 92 186 2.0 11.0 0.00 0.00 0.00 55 1015.6
20260507182559 91 170 4.0 11.0 0.00 0.00 0.00 55 1015.7
20260507182100 92 111 2.0 10.0 0.00 0.00 0.00 54 1015.7
20260507181558 92 0 2.0 11.0 0.00 0.00 0.00 55 1015.8
20260507181101 93 119 2.0 11.0 0.00 0.00 0.00 54 1015.8
20260507180600 93 103 1.0 10.0 0.00 0.00 0.00 55 1015.8
20260507180100 92 140 2.0 10.0 0.00 0.00 0.00 56 1015.9
20260507175559 93 83 2.0 9.0 0.00 0.00 0.00 54 1015.8
20260507175059 93 102 2.0 9.0 0.00 0.00 0.00 56 1015.9
20260507174603 93 143 2.0 9.0 0.00 0.00 0.00 55 1016.0
20260507174100 93 125 1.0 6.0 0.00 0.00 0.00 54 1016.0
20260507173558 92 93 0.0 10.0 0.00 0.00 0.00 54 1016.2
20260507173131 92 139 2.0 10.0 0.00 0.00 0.00 54 1016.1
20260507172600 92 149 3.0 10.0 0.00 0.00 0.00 53 1016.2
20260507172058 92 84 1.0 7.0 0.00 0.00 0.00 55 1016.2
20260507171602 92 178 2.0 7.0 0.00 0.00 0.00 57 1016.2
20260507171101 92 156 1.0 9.0 0.00 0.00 0.00 56 1016.3
20260507170603 92 113 2.0 9.0 0.00 0.00 0.00 58 1016.4
20260507170104 92 119 1.0 8.0 0.00 0.00 0.00 58 1016.5
20260507165601 91 109 1.0 7.0 0.00 0.00 0.00 58 1016.5
20260507165102 92 84 1.0 11.0 0.00 0.00 0.00 57 1016.6
20260507164600 92 136 2.0 11.0 0.00 0.00 0.00 59 1016.7
20260507164101 92 0 1.0 7.0 0.00 0.00 0.00 60 1016.8
20260507163558 92 154 1.0 7.0 0.00 0.00 0.00 59 1016.8
20260507163059 91 190 2.0 7.0 0.00 0.00 0.00 59 1016.9
20260507162601 91 189 2.0 8.0 0.00 0.00 0.00 59 1016.9
20260507162100 91 99 2.0 9.0 0.00 0.00 0.00 59 1017.0
20260507161613 91 119 2.0 9.0 0.00 0.00 0.00 60 1017.1
20260507161057 92 133 0.0 7.0 0.00 0.00 0.00 59 1017.0
20260507160559 91 79 2.0 7.0 0.00 0.00 0.00 60 1017.1
20260507160104 91 0 2.0 6.0 0.00 0.00 0.00 59 1017.1
20260507155600 90 61 1.0 9.0 0.00 0.00 0.00 60 1017.2
20260507155059 90 164 2.0 9.0 0.00 0.00 0.00 59 1017.4
20260507154559 91 129 1.0 6.0 0.00 0.00 0.00 58 1017.4
20260507154058 91 105 1.0 6.0 0.00 0.00 0.00 58 1017.4
20260507153558 90 166 0.0 6.0 0.00 0.00 0.00 60 1017.4
20260507153101 90 168 1.0 7.0 0.00 0.00 0.00 60 1017.4
20260507152600 89 118 0.0 7.0 0.00 0.00 0.00 62 1017.5
20260507152057 89 0 2.0 9.0 0.00 0.00 0.00 62 1017.5
20260507151612 89 154 1.0 9.0 0.00 0.00 0.00 62 1017.5
20260507151100 89 85 3.0 9.0 0.00 0.00 0.00 59 1017.6
20260507150601 89 107 1.0 6.0 0.00 0.00 0.00 60 1017.5
20260507150059 89 77 0.0 5.0 0.00 0.00 0.00 59 1017.6
20260507145559 89 0 0.0 4.0 0.00 0.00 0.00 61 1017.6
20260507145058 89 0 0.0 4.0 0.00 0.00 0.00 59 1017.6
20260507144618 89 0 0.0 4.0 0.00 0.00 0.00 60 1017.6
20260507144101 88 0 0.0 7.0 0.00 0.00 0.00 61 1017.5
20260507143600 88 98 1.0 7.0 0.00 0.00 0.00 61 1017.6
20260507143103 88 0 1.0 7.0 0.00 0.00 0.00 61 1017.6
20260507142557 88 0 0.0 3.0 0.00 0.00 0.00 61 1017.5
20260507142057 87 138 0.0 3.0 0.00 0.00 0.00 62 1017.5
20260507141611 87 121 0.0 0.0 0.00 0.00 0.00 64 1017.6
20260507141101 86 0 0.0 2.0 0.00 0.00 0.00 64 1017.6
20260507140601 86 0 0.0 2.0 0.00 0.00 0.00 65 1017.7
20260507140107 86 0 0.0 2.0 0.00 0.00 0.00 66 1017.6
20260507135604 85 0 0.0 2.0 0.00 0.00 0.00 67 1017.6
20260507135101 85 0 0.0 2.0 0.00 0.00 0.00 67 1017.6
20260507134600 85 0 0.0 0.0 0.00 0.00 0.00 68 1017.6
20260507134059 84 0 0.0 2.0 0.00 0.00 0.00 68 1017.6
20260507133559 84 0 0.0 2.0 0.00 0.00 0.00 69 1017.6
20260507133144 83 0 0.0 1.0 0.00 0.00 0.00 70 1017.6
20260507132558 82 0 0.0 6.0 0.00 0.00 0.00 71 1017.5
20260507132059 82 0 0.0 6.0 0.00 0.00 0.00 72 1017.6
20260507131600 81 0 1.0 6.0 0.00 0.00 0.00 73 1017.7
20260507131058 80 0 0.0 3.0 0.00 0.00 0.00 77 1017.6
20260507130559 80 0 0.0 3.0 0.00 0.00 0.00 78 1017.7
20260507130108 79 0 0.0 2.0 0.00 0.00 0.00 80 1017.6
20260507125601 78 0 0.0 3.0 0.00 0.00 0.00 82 1017.6
20260507125059 78 0 0.0 3.0 0.00 0.00 0.00 83 1017.5
20260507124608 77 0 0.0 1.0 0.00 0.00 0.00 85 1017.5
20260507124102 77 0 0.0 0.0 0.00 0.00 0.00 86 1017.4
20260507123601 76 0 0.0 2.0 0.00 0.00 0.00 87 1017.5
20260507123100 76 0 0.0 2.0 0.00 0.00 0.00 87 1017.4
20260507122559 75 0 0.0 2.0 0.00 0.00 0.00 87 1017.3
20260507122104 75 0 0.0 1.0 0.00 0.00 0.00 88 1017.3
20260507121604 75 0 0.0 1.0 0.00 0.00 0.00 88 1017.3
20260507121059 74 0 0.0 1.0 0.00 0.00 0.00 88 1017.2
20260507120558 74 0 0.0 1.0 0.00 0.00 0.00 88 1017.2
20260507120110 73 0 0.0 0.0 0.00 0.00 0.00 88 1017.0
20260507115601 73 0 0.0 0.0 0.00 0.00 0.00 88 1016.9
20260507115057 73 0 0.0 0.0 0.00 0.00 0.00 87 1016.8
20260507114617 72 0 0.0 0.0 0.00 0.00 0.00 87 1016.8
20260507114101 72 0 0.0 0.0 0.00 0.00 0.00 87 1016.8
20260507113558 71 0 0.0 0.0 0.00 0.00 0.00 86 1016.8
20260507113059 71 0 0.0 0.0 0.00 0.00 0.00 86 1016.7
20260507112559 71 0 0.0 0.0 0.00 0.00 0.00 86 1016.5
20260507112059 70 0 0.0 0.0 0.00 0.00 0.00 86 1016.5
20260507111606 70 0 0.0 0.0 0.00 0.00 0.00 85 1016.5
20260507111059 70 0 0.0 0.0 0.00 0.00 0.00 85 1016.4
20260507110559 70 0 0.0 0.0 0.00 0.00 0.00 85 1016.4
20260507105559 70 0 0.0 0.0 0.00 0.00 0.00 85 1016.2
20260507105101 70 0 0.0 0.0 0.00 0.00 0.00 85 1016.2
20260507104604 70 0 0.0 0.0 0.00 0.00 0.00 85 1016.1
20260507104059 70 0 0.0 0.0 0.00 0.00 0.00 84 1015.9
20260507103601 70 0 0.0 0.0 0.00 0.00 0.00 84 1015.9
20260507103100 70 0 0.0 0.0 0.00 0.00 0.00 84 1015.9
20260507102600 70 0 0.0 0.0 0.00 0.00 0.00 84 1015.7
20260507102058 70 0 0.0 0.0 0.00 0.00 0.00 84 1015.7
20260507101603 70 0 0.0 0.0 0.00 0.00 0.00 84 1015.6
20260507101059 70 0 0.0 0.0 0.00 0.00 0.00 83 1015.7
20260507100558 70 0 0.0 0.0 0.00 0.00 0.00 83 1015.7
20260507095559 70 0 0.0 0.0 0.00 0.00 0.00 83 1015.5
20260507095058 70 0 0.0 0.0 0.00 0.00 0.00 83 1015.4